Total_Precipitation_Accumulation
1.43 1.73 1.63 1.37 1.36 1.43 1.50 1.71 1.95 1.79 1.64 1.70 1.84 1.98 1.97 1.98 2.00 1.82 1.64 1.53 1.31 1.18 1.12 1.08 1.07 1.08 1.11 1.14 1.20 1.34 1.46 1.54 1.65 1.84 2.08 2.39 2.69 2.99
1.59 1.62 1.62 1.52 1.51 1.54 1.59 1.72 1.95 1.96 1.81 1.75 1.99 2.11 1.97 1.80 1.97 1.91 1.73 1.62 1.36 1.18 1.06 1.03 1.03 1.04 1.05 1.03 1.01 1.03 1.07 1.12 1.16 1.22 1.30 1.41 1.61 1.96
1.67 1.61 1.61 1.75 1.77 1.65 1.69 1.74 1.92 2.11 2.04 1.92 2.08 2.12 2.01 1.80 1.77 1.77 1.70 1.63 1.45 1.38 1.20 1.12 1.06 1.02 1.00 1.01 1.05 1.04 0.99 0.94 0.91 0.95 1.00 1.07 1.11 1.16
1.69 1.83 1.84 1.87 1.82 1.73 1.79 1.83 1.97 2.22 2.23 2.10 2.07 2.10 2.03 1.94 1.84 1.67 1.49 1.45 1.45 1.57 1.40 1.24 1.15 1.11 1.05 1.00 0.97 0.95 0.92 0.89 0.86 0.80 0.79 0.81 0.84 0.92
1.45 1.71 1.95 2.19 2.09 1.93 1.87 1.85 1.92 2.04 2.22 2.10 2.03 2.19 2.16 2.05 1.90 1.67 1.50 1.42 1.25 1.34 1.36 1.25 1.11 1.02 0.97 0.93 0.91 0.88 0.82 0.81 0.80 0.80 0.82 0.83 0.82 0.84
1.28 1.39 1.53 1.76 1.95 2.06 1.91 1.78 1.83 1.96 2.11 2.15 2.23 2.48 2.55 2.39 2.08 1.83 1.70 1.56 1.39 1.19 1.22 1.17 1.08 0.99 0.96 0.94 0.91 0.89 0.88 0.87 0.87 0.86 0.85 0.87 0.88 0.87
1.38 1.35 1.29 1.39 1.54 1.70 1.73 1.88 1.92 1.93 2.05 2.16 2.37 2.80 2.83 2.58 2.15 1.91 1.83 1.77 1.56 1.34 1.23 1.07 0.96 0.88 0.89 0.95 0.95 0.91 0.85 0.82 0.81 0.82 0.85 0.87 0.88 0.90
1.58 1.52 1.40 1.31 1.34 1.42 1.49 1.61 1.78 1.85 1.93 2.04 2.24 2.55 2.68 2.55 2.28 2.03 1.82 1.69 1.55 1.40 1.28 1.21 1.06 0.99 0.90 0.83 0.93 0.92 0.89 0.86 0.81 0.77 0.76 0.78 0.82 0.83
1.77 1.79 1.51 1.29 1.37 1.34 1.43 1.44 1.46 1.57 1.68 1.79 1.99 2.19 2.48 2.59 2.45 2.07 1.89 1.73 1.49 1.36 1.30 1.25 1.16 1.04 0.92 0.88 0.94 0.82 0.81 0.80 0.74 0.70 0.67 0.64 0.65 0.68
1.54 1.53 1.51 1.38 1.28 1.28 1.30 1.24 1.20 1.22 1.29 1.33 1.46 1.72 2.02 2.37 2.55 2.32 2.13 1.93 1.68 1.46 1.25 1.22 1.18 1.07 0.94 0.85 0.93 0.81 0.72 0.71 0.68 0.62 0.59 0.59 0.60 0.61
1.30 1.32 1.35 1.26 1.25 1.12 1.05 1.07 1.05 1.02 1.01 1.03 1.09 1.25 1.52 1.84 2.19 2.31 2.05 1.72 1.57 1.36 1.20 1.10 1.05 1.08 1.04 0.89 0.87 0.90 0.76 0.68 0.64 0.63 0.60 0.58 0.57 0.59
1.47 1.45 1.39 1.24 1.18 1.01 0.92 0.96 0.92 0.86 0.87 0.86 0.84 0.89 1.02 1.29 1.67 1.82 1.88 1.64 1.41 1.27 1.01 0.94 0.91 0.93 0.99 0.85 0.70 0.70 0.70 0.72 0.69 0.63 0.62 0.62 0.63 0.53
1.54 1.59 1.53 1.39 1.10 0.94 0.82 0.80 0.78 0.81 0.85 0.85 0.83 0.86 0.99 1.17 1.34 1.57 1.73 1.67 1.42 1.15 0.97 0.94 0.87 0.86 0.87 0.80 0.73 0.67 0.63 0.64 0.65 0.67 0.68 0.69 0.69 0.62
1.44 1.56 1.57 1.44 1.18 0.99 0.84 0.75 0.73 0.69 0.71 0.77 0.78 0.77 0.83 0.94 1.13 1.37 1.58 1.58 1.43 1.21 1.06 1.04 0.97 0.88 0.83 0.75 0.68 0.66 0.67 0.66 0.65 0.62 0.62 0.75 0.73 0.72
1.16 1.44 1.53 1.41 1.24 1.05 0.93 0.86 0.75 0.66 0.69 0.69 0.64 0.61 0.65 0.76 0.97 1.30 1.64 1.78 1.69 1.45 1.29 1.14 1.06 1.04 1.03 0.88 0.71 0.63 0.66 0.67 0.63 0.63 0.64 0.67 0.65 0.65
1.03 1.19 1.31 1.30 1.17 1.08 0.98 0.86 0.74 0.70 0.68 0.66 0.65 0.68 0.76 0.84 0.96 1.11 1.45 1.73 1.77 1.58 1.37 1.24 1.16 1.18 1.13 0.98 0.83 0.66 0.60 0.63 0.62 0.63 0.66 0.66 0.67 0.66
1.09 1.13 1.23 1.31 1.30 1.25 1.22 1.12 1.00 0.92 0.84 0.80 0.84 0.85 0.89 0.94 0.97 1.07 1.30 1.50 1.51 1.37 1.27 1.27 1.28 1.25 1.17 1.13 0.98 0.73 0.61 0.57 0.57 0.65 0.74 0.72 0.68 0.72
0.82 0.91 1.09 1.27 1.39 1.43 1.45 1.39 1.26 1.15 1.05 1.02 1.02 0.98 0.97 1.02 1.04 1.07 1.21 1.38 1.41 1.35 1.28 1.21 1.30 1.40 1.33 1.13 0.93 0.79 0.66 0.57 0.57 0.66 0.74 0.74 0.68 0.67
0.64 0.79 0.95 1.09 1.27 1.41 1.45 1.41 1.32 1.30 1.31 1.27 1.24 1.19 1.12 1.11 1.14 1.12 1.14 1.26 1.32 1.29 1.31 1.31 1.31 1.35 1.32 1.03 0.77 0.70 0.73 0.71 0.74 0.76 0.77 0.75 0.67 0.64
0.65 0.80 0.94 1.09 1.24 1.40 1.43 1.40 1.40 1.40 1.40 1.35 1.36 1.36 1.33 1.28 1.25 1.22 1.16 1.16 1.25 1.33 1.34 1.34 1.28 1.20 1.13 1.04 0.91 0.77 0.73 0.84 0.91 0.87 0.84 0.85 0.78 0.75
0.79 0.84 0.89 0.99 1.15 1.31 1.43 1.46 1.48 1.46 1.44 1.45 1.44 1.43 1.45 1.41 1.30 1.28 1.31 1.31 1.27 1.31 1.25 1.12 1.10 1.25 1.34 1.37 1.20 0.89 0.77 0.78 0.89 0.94 0.97 1.04 0.96 0.89
0.88 0.88 0.87 0.92 1.09 1.25 1.38 1.48 1.52 1.49 1.44 1.44 1.43 1.42 1.42 1.41 1.33 1.32 1.41 1.41 1.28 1.19 1.18 1.19 1.35 1.50 1.50 1.42 1.15 0.95 0.89 0.89 0.90 0.92 0.94 0.98 0.97 0.87
0.92 0.89 0.84 0.89 1.05 1.22 1.32 1.43 1.52 1.52 1.45 1.42 1.47 1.50 1.43 1.38 1.34 1.36 1.40 1.44 1.39 1.32 1.34 1.37 1.42 1.46 1.41 1.38 1.29 1.12 0.98 0.98 1.00 0.93 0.78 0.73 0.72 0.70